Home   Weather   Florida   Past weeks

Flag for Uruguay Past Weather in Florida, Uruguay — Yesterday and Last 2 Weeks

Now
72 °F

Clear.


Feels Like: 75 °F
Forecast: 65 / 88 °F
Wind: 12 mph from Northeast

Location: Carrasco

Current Time: Dec 5, 2016 at 1:38:32 am

Latest Report: Dec 5, 2016 at 1:00 am


Visibility: 10 mi

Pressure: 29.77 "Hg

Humidity: 69%

Dew Point: 61 °F

Location of FloridaLocation

Past Weather in Florida — Graph

°F

Florida Temperature Yesterday

Maximum temperature yesterday: 81 °F (at 2:00 pm)
Minimum temperature yesterday: 64 °F (at 6:00 am)
Average temperature yesterday: 72 °F

High & Low Weather Summary for the Past Weeks

 TemperatureHumidityPressure
High86 °F (Nov 26, 1:00 pm)100% (Nov 26, 8:00 pm)30.21 "Hg (Nov 26, 8:00 pm)
Low50 °F (Nov 23, 5:00 am)28% (Nov 23, 2:00 pm)29.71 "Hg (Nov 26, 9:00 pm)
Average68 °F70%29.96 "Hg
* Reported Nov 20 12:00 am — Dec 5 12:00 am, Florida, Weather by CustomWeather, © 2016

Note: Actual official high and low records may vary slightly from our data, if they occured in-between our weather recording intervals... More about our weather records

Advertising

Florida Weather History for the Previous 24 Hours

Scroll right to see more
 ConditionsComfort  
Time TempWeatherWind HumidityBarometerVisibility
12:00 am
Mon, Dec 5
72 °FClear.9 mph73%29.77 "Hg10 mi
11:00 pm
Sun, Dec 4
72 °FClear.7 mph83%29.77 "Hg10 mi
10:00 pm72 °FClear.7 mph88%29.74 "Hg10 mi
9:00 pm72 °FClear.7 mph88%29.74 "Hg10 mi
8:00 pm72 °FPassing clouds.9 mph88%29.77 "HgN/A
7:00 pm73 °FPartly sunny.10 mph78%29.77 "HgN/A
6:00 pm75 °FPartly sunny.13 mph74%29.77 "HgN/A
5:00 pm75 °FPartly sunny.12 mph74%29.80 "HgN/A
4:00 pm75 °FPartly sunny.13 mph74%29.80 "HgN/A
3:00 pm77 °FScattered clouds.12 mph69%29.83 "HgN/A
2:00 pm81 °FPassing clouds.12 mph62%29.83 "HgN/A
1:00 pm79 °FScattered clouds.10 mph65%29.86 "HgN/A
12:00 pm79 °FScattered clouds.9 mph65%29.86 "HgN/A
11:00 am79 °FScattered clouds.8 mph61%29.89 "HgN/A
10:00 am77 °FPassing clouds.8 mph65%29.89 "HgN/A
9:00 am73 °FSunny.7 mph74%29.89 "Hg10 mi
8:00 am70 °FSunny.8 mph83%29.89 "Hg10 mi
7:00 am66 °FSunny.5 mph94%29.89 "Hg10 mi
6:00 am64 °FLight fog.3 mph94%29.89 "HgN/A
5:00 am66 °FPassing clouds.5 mph88%29.86 "HgN/A
4:00 am66 °FPassing clouds.5 mph94%29.86 "HgN/A
3:00 am68 °FPassing clouds.9 mph94%29.86 "HgN/A
2:00 am68 °FPassing clouds.8 mph94%29.86 "HgN/A
1:00 am68 °FPassing clouds.12 mph88%29.86 "HgN/A
Weather by CustomWeather, © 2016

See weather overviewHow to use our weather pages